| time (UTC) | temp F | wind direction | speed MPH | gust MPH | rain 1hr in | rain 24hr in | rain mn in | humidity % | barometer mb |
| 20260509101614 | 63 | 342 | 6.0 | 11.0 | 0.00 | 0.00 | 0.00 | 75 | 1009.0 |
| 20260509100612 | 63 | 23 | 6.0 | 13.0 | 0.00 | 0.00 | 0.00 | 78 | 1009.1 |
| 20260509095609 | 62 | 12 | 6.0 | 11.0 | 0.00 | 0.00 | 0.00 | 77 | 1009.0 |
| 20260509094607 | 62 | 11 | 6.0 | 11.0 | 0.00 | 0.00 | 0.00 | 78 | 1008.9 |
| 20260509093604 | 63 | 328 | 3.0 | 8.0 | 0.00 | 0.00 | 0.00 | 77 | 1008.7 |
| 20260509092602 | 62 | 13 | 6.0 | 11.0 | 0.00 | 0.00 | 0.00 | 78 | 1008.7 |
| 20260509091559 | 62 | 315 | 5.0 | 11.0 | 0.00 | 0.00 | 0.00 | 78 | 1008.8 |
| 20260509090557 | 61 | 345 | 6.0 | 11.0 | 0.00 | 0.00 | 0.00 | 79 | 1008.6 |
| 20260509085554 | 61 | 339 | 6.0 | 11.0 | 0.00 | 0.00 | 0.00 | 78 | 1008.5 |
| 20260509084551 | 61 | 7 | 6.0 | 13.0 | 0.00 | 0.00 | 0.00 | 79 | 1008.6 |
| 20260509083549 | 61 | 299 | 4.0 | 11.0 | 0.00 | 0.00 | 0.00 | 79 | 1008.6 |
| 20260509082546 | 62 | 10 | 4.0 | 13.0 | 0.00 | 0.00 | 0.00 | 77 | 1008.5 |
| 20260509081544 | 62 | 352 | 5.0 | 9.0 | 0.00 | 0.00 | 0.00 | 77 | 1008.1 |
| 20260509080541 | 61 | 330 | 8.0 | 14.0 | 0.00 | 0.00 | 0.00 | 78 | 1008.1 |
| 20260509075538 | 60 | 325 | 8.0 | 14.0 | 0.00 | 0.00 | 0.00 | 80 | 1008.2 |
| 20260509074536 | 60 | 4 | 7.0 | 14.0 | 0.00 | 0.00 | 0.00 | 81 | 1008.4 |
| 20260509073533 | 59 | 356 | 5.0 | 11.0 | 0.00 | 0.00 | 0.00 | 83 | 1008.5 |
| 20260509072531 | 59 | 346 | 7.0 | 11.0 | 0.00 | 0.00 | 0.00 | 84 | 1008.6 |
| 20260509071528 | 59 | 343 | 6.0 | 11.0 | 0.00 | 0.00 | 0.00 | 85 | 1008.8 |
| 20260509070526 | 59 | 340 | 6.0 | 11.0 | 0.00 | 0.00 | 0.00 | 85 | 1008.9 |
| 20260509065523 | 59 | 359 | 4.0 | 11.0 | 0.00 | 0.00 | 0.00 | 85 | 1008.9 |
| 20260509064520 | 59 | 329 | 5.0 | 11.0 | 0.00 | 0.00 | 0.00 | 85 | 1008.9 |
| 20260509063518 | 59 | 297 | 4.0 | 11.0 | 0.00 | 0.00 | 0.00 | 85 | 1008.9 |
| 20260509062515 | 58 | 296 | 4.0 | 8.0 | 0.00 | 0.00 | 0.00 | 86 | 1009.0 |
| 20260509061613 | 58 | 327 | 4.0 | 7.0 | 0.00 | 0.00 | 0.00 | 86 | 1009.2 |
| 20260509060610 | 58 | 341 | 3.0 | 8.0 | 0.00 | 0.00 | 0.00 | 85 | 1009.3 |
| 20260509055607 | 58 | 300 | 3.0 | 4.0 | 0.00 | 0.00 | 0.00 | 84 | 1009.1 |
| 20260509054605 | 58 | 305 | 5.0 | 9.0 | 0.00 | 0.00 | 0.00 | 84 | 1009.0 |
| 20260509053602 | 58 | 315 | 5.0 | 8.0 | 0.00 | 0.00 | 0.00 | 84 | 1009.0 |
| 20260509052600 | 58 | 292 | 2.0 | 4.0 | 0.00 | 0.00 | 0.00 | 84 | 1009.1 |
| 20260509051557 | 58 | 347 | 3.0 | 6.0 | 0.00 | 0.00 | 0.00 | 85 | 1009.0 |
| 20260509050554 | 58 | 339 | 2.0 | 4.0 | 0.00 | 0.00 | 0.00 | 85 | 1009.2 |
| 20260509045552 | 58 | 340 | 2.0 | 6.0 | 0.00 | 0.00 | 0.00 | 85 | 1009.1 |
| 20260509044549 | 58 | 347 | 3.0 | 6.0 | 0.00 | 0.00 | 0.00 | 85 | 1009.1 |
| 20260509043547 | 58 | 339 | 3.0 | 6.0 | 0.00 | 0.00 | 0.00 | 85 | 1009.3 |
| 20260509042544 | 58 | 317 | 1.0 | 2.0 | 0.00 | 0.00 | 0.00 | 85 | 1009.1 |
| 20260509041541 | 58 | 298 | 3.0 | 6.0 | 0.00 | 0.00 | 0.00 | 85 | 1009.2 |
| 20260509040539 | 58 | 313 | 1.0 | 4.0 | 0.00 | 0.00 | 0.00 | 85 | 1009.1 |
| 20260509035536 | 58 | 301 | 3.0 | 6.0 | 0.00 | 0.00 | 0.00 | 85 | 1009.2 |
| 20260509034534 | 58 | 358 | 2.0 | 4.0 | 0.00 | 0.00 | 0.00 | 85 | 1009.3 |
| 20260509033531 | 58 | 314 | 3.0 | 6.0 | 0.00 | 0.00 | 0.00 | 85 | 1009.2 |
| 20260509032528 | 58 | 343 | 2.0 | 4.0 | 0.00 | 0.00 | 0.00 | 85 | 1009.2 |
| 20260509031526 | 58 | 313 | 3.0 | 6.0 | 0.00 | 0.00 | 0.00 | 85 | 1009.3 |
| 20260509030523 | 58 | 318 | 1.0 | 4.0 | 0.00 | 0.00 | 0.00 | 85 | 1009.3 |
| 20260509025521 | 58 | 318 | 3.0 | 6.0 | 0.00 | 0.00 | 0.00 | 85 | 1009.3 |
| 20260509024518 | 58 | 294 | 3.0 | 6.0 | 0.00 | 0.00 | 0.00 | 85 | 1009.4 |
| 20260509023515 | 58 | 297 | 4.0 | 6.0 | 0.00 | 0.00 | 0.00 | 85 | 1009.4 |
| 20260509022613 | 58 | 341 | 2.0 | 4.0 | 0.00 | 0.00 | 0.00 | 85 | 1009.5 |
| 20260509021610 | 58 | 319 | 4.0 | 7.0 | 0.00 | 0.00 | 0.00 | 85 | 1009.4 |
| 20260509020608 | 58 | 288 | 3.0 | 4.0 | 0.00 | 0.00 | 0.00 | 86 | 1009.8 |
| 20260509015605 | 58 | 313 | 1.0 | 4.0 | 0.00 | 0.00 | 0.00 | 86 | 1009.8 |
| 20260509014603 | 58 | 297 | 3.0 | 6.0 | 0.00 | 0.00 | 0.00 | 86 | 1010.0 |
| 20260509013600 | 58 | 275 | 2.0 | 4.0 | 0.00 | 0.00 | 0.00 | 86 | 1010.0 |
| 20260509012557 | 58 | 286 | 2.0 | 4.0 | 0.00 | 0.00 | 0.00 | 85 | 1010.1 |
| 20260509011555 | 58 | 297 | 3.0 | 6.0 | 0.00 | 0.00 | 0.00 | 85 | 1010.1 |
| 20260509010552 | 58 | 311 | 4.0 | 6.0 | 0.00 | 0.00 | 0.00 | 85 | 1010.3 |
| 20260509005549 | 58 | 278 | 3.0 | 4.0 | 0.00 | 0.00 | 0.00 | 84 | 1010.3 |
| 20260509004547 | 58 | 316 | 3.0 | 6.0 | 0.00 | 0.00 | 0.00 | 84 | 1010.4 |
| 20260509003544 | 58 | 301 | 2.0 | 4.0 | 0.00 | 0.00 | 0.00 | 84 | 1010.6 |
| 20260509002542 | 58 | 305 | 2.0 | 4.0 | 0.00 | 0.00 | 0.00 | 83 | 1010.6 |
| 20260509001539 | 58 | 320 | 4.0 | 7.0 | 0.00 | 0.00 | 0.00 | 83 | 1010.6 |
| 20260509000536 | 58 | 293 | 4.0 | 6.0 | 0.00 | 0.00 | 0.00 | 83 | 1010.7 |
| 20260508235534 | 58 | 317 | 2.0 | 4.0 | 0.00 | 0.00 | 0.00 | 83 | 1010.7 |
| 20260508234531 | 58 | 324 | 2.0 | 4.0 | 0.00 | 0.00 | 0.00 | 83 | 1010.7 |
| 20260508233529 | 57 | 300 | 3.0 | 4.0 | 0.00 | 0.00 | 0.00 | 83 | 1010.7 |
| 20260508232526 | 57 | 286 | 3.0 | 6.0 | 0.00 | 0.00 | 0.00 | 83 | 1010.8 |
| 20260508231524 | 57 | 311 | 3.0 | 6.0 | 0.00 | 0.00 | 0.00 | 84 | 1010.8 |
| 20260508230521 | 57 | 288 | 4.0 | 6.0 | 0.00 | 0.00 | 0.00 | 84 | 1010.9 |
| 20260508225518 | 57 | 307 | 2.0 | 4.0 | 0.00 | 0.00 | 0.00 | 85 | 1010.8 |
| 20260508224516 | 56 | 280 | 4.0 | 6.0 | 0.00 | 0.00 | 0.00 | 86 | 1010.8 |
| 20260508223613 | 56 | 289 | 3.0 | 4.0 | 0.00 | 0.00 | 0.00 | 87 | 1010.9 |
| 20260508222611 | 56 | 293 | 4.0 | 6.0 | 0.00 | 0.00 | 0.00 | 87 | 1010.9 |
| 20260508221608 | 56 | 298 | 3.0 | 4.0 | 0.00 | 0.00 | 0.00 | 87 | 1011.0 |
| 20260508220606 | 56 | 313 | 2.0 | 4.0 | 0.00 | 0.00 | 0.00 | 87 | 1011.2 |
| 20260508215603 | 56 | 315 | 2.0 | 4.0 | 0.00 | 0.00 | 0.00 | 87 | 1011.0 |
| 20260508214600 | 56 | 302 | 3.0 | 4.0 | 0.00 | 0.00 | 0.00 | 87 | 1010.9 |
| 20260508213558 | 57 | 316 | 2.0 | 4.0 | 0.00 | 0.00 | 0.00 | 87 | 1011.0 |
| 20260508212555 | 57 | 307 | 1.0 | 4.0 | 0.00 | 0.00 | 0.00 | 86 | 1011.0 |
| 20260508211552 | 57 | 332 | 2.0 | 4.0 | 0.00 | 0.00 | 0.00 | 86 | 1011.0 |
| 20260508210550 | 58 | 8 | 1.0 | 2.0 | 0.00 | 0.00 | 0.00 | 86 | 1010.9 |
| 20260508205547 | 58 | 26 | 1.0 | 4.0 | 0.00 | 0.00 | 0.00 | 86 | 1011.0 |
| 20260508204545 | 58 | 350 | 2.0 | 4.0 | 0.00 | 0.00 | 0.00 | 86 | 1011.0 |
| 20260508203542 | 58 | 356 | 1.0 | 4.0 | 0.00 | 0.00 | 0.00 | 86 | 1010.8 |
| 20260508202539 | 58 | 27 | 2.0 | 6.0 | 0.00 | 0.00 | 0.00 | 86 | 1010.6 |
| 20260508201537 | 58 | 7 | 3.0 | 6.0 | 0.00 | 0.00 | 0.00 | 86 | 1010.4 |
| 20260508200534 | 58 | 316 | 2.0 | 4.0 | 0.00 | 0.00 | 0.00 | 86 | 1010.5 |
| 20260508195531 | 58 | 1 | 1.0 | 4.0 | 0.00 | 0.00 | 0.00 | 85 | 1010.2 |
| 20260508194529 | 59 | 352 | 2.0 | 4.0 | 0.00 | 0.00 | 0.00 | 84 | 1010.2 |
| 20260508193526 | 59 | 352 | 3.0 | 7.0 | 0.00 | 0.00 | 0.00 | 83 | 1010.1 |
| 20260508192524 | 59 | 347 | 3.0 | 6.0 | 0.00 | 0.00 | 0.00 | 82 | 1010.0 |
| 20260508191521 | 59 | 16 | 4.0 | 7.0 | 0.00 | 0.00 | 0.00 | 81 | 1009.9 |
| 20260508190518 | 59 | 151 | 2.0 | 7.0 | 0.00 | 0.00 | 0.00 | 80 | 1009.8 |
| 20260508185516 | 60 | 45 | 3.0 | 6.0 | 0.00 | 0.00 | 0.00 | 80 | 1009.9 |
| 20260508184613 | 60 | 17 | 4.0 | 8.0 | 0.00 | 0.00 | 0.00 | 80 | 1009.9 |
| 20260508183611 | 60 | 58 | 3.0 | 8.0 | 0.00 | 0.00 | 0.00 | 78 | 1009.7 |
| 20260508182608 | 61 | 357 | 2.0 | 6.0 | 0.00 | 0.00 | 0.00 | 77 | 1009.6 |
| 20260508181606 | 60 | 34 | 5.0 | 11.0 | 0.00 | 0.00 | 0.00 | 77 | 1009.5 |
| 20260508180603 | 61 | 134 | 2.0 | 4.0 | 0.00 | 0.00 | 0.00 | 76 | 1009.5 |
| 20260508175600 | 62 | 87 | 2.0 | 7.0 | 0.00 | 0.00 | 0.00 | 75 | 1009.5 |
| 20260508174558 | 62 | 75 | 3.0 | 8.0 | 0.00 | 0.00 | 0.00 | 75 | 1009.4 |
| 20260508172553 | 63 | 252 | 2.0 | 6.0 | 0.00 | 0.00 | 0.00 | 72 | 1009.3 |
| 20260508171550 | 62 | 166 | 2.0 | 4.0 | 0.00 | 0.00 | 0.00 | 71 | 1009.3 |
| 20260508170547 | 62 | 69 | 2.0 | 7.0 | 0.00 | 0.00 | 0.00 | 71 | 1009.2 |
| 20260508165545 | 63 | 68 | 3.0 | 11.0 | 0.00 | 0.00 | 0.00 | 69 | 1009.1 |
| 20260508164542 | 63 | 193 | 2.0 | 4.0 | 0.00 | 0.00 | 0.00 | 68 | 1009.1 |
| 20260508163540 | 64 | 59 | 2.0 | 6.0 | 0.00 | 0.00 | 0.00 | 69 | 1009.1 |
| 20260508162537 | 63 | 64 | 4.0 | 11.0 | 0.00 | 0.00 | 0.00 | 69 | 1008.9 |
| 20260508161534 | 63 | 33 | 6.0 | 9.0 | 0.00 | 0.00 | 0.00 | 69 | 1008.9 |
| 20260508160532 | 64 | 41 | 5.0 | 11.0 | 0.00 | 0.00 | 0.00 | 70 | 1009.1 |
| 20260508155530 | 64 | 58 | 5.0 | 13.0 | 0.00 | 0.00 | 0.00 | 71 | 1009.2 |
| 20260508154527 | 64 | 47 | 4.0 | 9.0 | 0.00 | 0.00 | 0.00 | 70 | 1009.3 |
| 20260508153525 | 64 | 82 | 2.0 | 9.0 | 0.00 | 0.00 | 0.00 | 70 | 1009.2 |
| 20260508152522 | 65 | 134 | 3.0 | 7.0 | 0.00 | 0.00 | 0.00 | 70 | 1009.2 |
| 20260508151519 | 65 | 117 | 3.0 | 8.0 | 0.00 | 0.00 | 0.00 | 69 | 1009.2 |
| 20260508150517 | 66 | 139 | 3.0 | 7.0 | 0.00 | 0.00 | 0.00 | 67 | 1009.0 |
| 20260508145614 | 66 | 62 | 4.0 | 9.0 | 0.00 | 0.00 | 0.00 | 63 | 1009.0 |
| 20260508144612 | 66 | 43 | 5.0 | 14.0 | 0.00 | 0.00 | 0.00 | 63 | 1009.0 |
| 20260508143609 | 66 | 38 | 5.0 | 13.0 | 0.00 | 0.00 | 0.00 | 62 | 1009.0 |
| 20260508142607 | 65 | 57 | 4.0 | 9.0 | 0.00 | 0.00 | 0.00 | 64 | 1009.0 |
| 20260508141604 | 66 | 101 | 4.0 | 11.0 | 0.00 | 0.00 | 0.00 | 64 | 1009.2 |
| 20260508140601 | 66 | 36 | 6.0 | 11.0 | 0.00 | 0.00 | 0.00 | 62 | 1009.4 |
| 20260508135559 | 67 | 37 | 4.0 | 11.0 | 0.00 | 0.00 | 0.00 | 62 | 1009.6 |
| 20260508134556 | 67 | 86 | 2.0 | 9.0 | 0.00 | 0.00 | 0.00 | 61 | 1009.5 |
| 20260508133554 | 67 | 110 | 2.0 | 4.0 | 0.00 | 0.00 | 0.00 | 58 | 1009.7 |
| 20260508132551 | 67 | 106 | 2.0 | 6.0 | 0.00 | 0.00 | 0.00 | 60 | 1009.8 |
| 20260508131548 | 66 | 89 | 2.0 | 6.0 | 0.00 | 0.00 | 0.00 | 60 | 1009.8 |
| 20260508130546 | 65 | 54 | 5.0 | 14.0 | 0.00 | 0.00 | 0.00 | 59 | 1009.7 |
| 20260508125543 | 67 | 30 | 2.0 | 9.0 | 0.00 | 0.00 | 0.00 | 55 | 1009.5 |
| 20260508124541 | 66 | 53 | 4.0 | 11.0 | 0.00 | 0.00 | 0.00 | 54 | 1009.7 |
| 20260508123538 | 66 | 115 | 4.0 | 14.0 | 0.00 | 0.00 | 0.00 | 59 | 1009.8 |
| 20260508122538 | 66 | 359 | 2.0 | 6.0 | 0.00 | 0.00 | 0.00 | 63 | 1009.6 |
| 20260508121533 | 67 | 44 | 4.0 | 11.0 | 0.00 | 0.00 | 0.00 | 59 | 1009.7 |
| 20260508120530 | 66 | 189 | 3.0 | 7.0 | 0.00 | 0.00 | 0.00 | 61 | 1009.8 |
| 20260508115527 | 65 | 143 | 2.0 | 11.0 | 0.00 | 0.00 | 0.00 | 62 | 1009.8 |
| 20260508114525 | 65 | 61 | 2.0 | 8.0 | 0.00 | 0.00 | 0.00 | 64 | 1009.6 |
| 20260508113522 | 66 | 5 | 2.0 | 8.0 | 0.00 | 0.00 | 0.00 | 60 | 1009.7 |
| 20260508112520 | 66 | 33 | 2.0 | 9.0 | 0.00 | 0.00 | 0.00 | 59 | 1009.7 |
| 20260508111517 | 64 | 58 | 5.0 | 11.0 | 0.00 | 0.00 | 0.00 | 63 | 1009.6 |
| 20260508110615 | 64 | 192 | 2.0 | 6.0 | 0.00 | 0.00 | 0.00 | 65 | 1009.6 |
| 20260508105612 | 64 | 73 | 2.0 | 7.0 | 0.00 | 0.00 | 0.00 | 65 | 1009.6 |
| 20260508104609 | 64 | 24 | 4.0 | 7.0 | 0.00 | 0.00 | 0.00 | 67 | 1009.7 |
| 20260508103607 | 64 | 354 | 4.0 | 11.0 | 0.00 | 0.00 | 0.00 | 65 | 1009.9 |
| 20260508102604 | 64 | 35 | 1.0 | 4.0 | 0.00 | 0.00 | 0.00 | 66 | 1009.8 |